Regional Weather Roundup
Issued by NWS

Home | Current Version | Previous Version | Text Only | Print | Product List | Glossary On
Versions: 1 2 3 4 5 6 7 8 9 10 11 12 13 14 15 16 17 18 19 20 21 22 23 24 25 26 27 28 29 30 31 32 33 34 35 36 37 38 39 40 41 42 43 44 45 46 47 48 49 50
000
ASUS42 KTBW 292117
RWRFL
FLORIDA REGIONAL WEATHER ROUNDUP
NATIONAL WEATHER SERVICE TAMPA BAY RUSKIN FL
500 PM EDT MON MAY 29 2017

NOTE: "FAIR" INDICATES FEW OR NO CLOUDS BELOW 12,000 FEET WITH NO
SIGNIFICANT WEATHER AND/OR OBSTRUCTIONS TO VISIBILITY.

FLZ001>010-012>015-112-114-115-292200-
PANHANDLE FLORIDA

CITY           SKY/WX    TMP DP  RH WIND       PRES   REMARKS
PENSACOLA      MOSUNNY   86  75  69 S13       30.00S HX  95
PENSACOLA NAS  MOSUNNY   84  73  69 S10       30.01S
MILTON NAS     MOSUNNY   86  72  62 S5        30.00
CRESTVIEW      SUNNY     89  68  49 VRB6      30.01F
DUKE FIELD     FAIR      88  71  57 S10       29.99F
VALPARAISO     PTSUNNY   83  76  79 S10       30.01F
MARY ESTHER    MOSUNNY   83  76  79 SW7       30.00S
PANAMA CITY    FAIR      86  73  65 S9        30.00F
TYNDALL AFB    MOSUNNY   83  75  78 SW10      30.03F
APALACHICOLA     N/A    N/A N/A N/A MISG      30.03F

STATION/POSITION SKY/WX   TEMP    WIND        PRES    WAVE   SWELL
                          AIR SEA DIR/SP/G            HT/PER HT/PER
                          (F)     (DEG/KT/KT) (MB)    (FT/S) (FT/S)
30.1N   87.6W              80 81  240/  6/  8 1016.0F   3/ 6   3/ 6
29.2N   88.2W              81 79  160/  8/ 10 1016.5
28.8N   86.0W              81 81  170/  8/ 10 1016.9F   2/ 7   2/ 7
PANAMA CITY BEAC           80 81  180/  5/  6 1017.1F
TOWER C                    80     220/  8/  9 1017.8F
28.5N   84.5W              81 84  160/  6/  8 1017.5F   1/ 4

$$
FLZ011-016>038-118-127-128-134-139-239-292200-
NORTH FLORIDA

CITY           SKY/WX    TMP DP  RH WIND       PRES   REMARKS
MARIANNA       SUNNY     91  66  43 W13G18    29.99F
TALLAHASSEE    PTSUNNY   92  70  48 SW13      30.00F HX  97
PERRY          SUNNY     88  74  62 SW12      30.03F HX  96
CROSS CITY     SUNNY     88  72  58 W9G17     30.03F
LAKE CITY      FAIR      91  64  40 W8        30.01S
GAINESVILLE    SUNNY     93  66  40 SW8       30.00F HX  96
WILLISTON      SUNNY     93  73  52 SW13G18   30.01F HAZE    HX 102
PALATKA        FAIR      95  61  31 W3        30.00S HX  95
MAYPORT NAS    SUNNY     86  74  67 SE14      29.99F
JACKSONVILLE   PTSUNNY   96  71  44 SW7       29.97F HX 103
JAX NAS        PTSUNNY   95  66  38 SE12      29.99F HX  98
FERNANDINA BEA FAIR      88  73  62 SE10      29.98F HX  96
ST AUGUSTINE   MOSUNNY   86  69  56 SE15      30.01F
PALM COAST     FAIR      88  71  55 SE12      30.01F

STATION/POSITION SKY/WX   TEMP    WIND        PRES    WAVE   SWELL
                          AIR SEA DIR/SP/G            HT/PER HT/PER
                          (F)     (DEG/KT/KT) (MB)    (FT/S) (FT/S)
SHELL POINT      NOT AVBL
KEATON BEACH               81     220/  8/ 10 1016.9F
CEDAR KEY                  82     260/  9/ 10 1017.7F
FERNANDINA                 86 82  140/  8/ 15 1016.2F
30.7N   81.3W                 80                N/A     1/ 3
MAYPORT                    84 81  130/  8/ 13 1016.2F
31.4N   80.9W              80 80  150/ 12/ 14 1015.3F   1/ 5
ST AUGUSTINE               79 82  140/  8/  9 1017.1F

$$
FLZ040-043>046-052-053-057-058-063-144-292200-
INTERIOR CENTRAL FLORIDA

CITY           SKY/WX    TMP DP  RH WIND       PRES   REMARKS
THE VILLAGES     N/A     95  66  38 MISG      29.91F HX  98
LEESBURG       SUNNY     94  67  41 SW6       30.02F HX  97
SANFORD        PTSUNNY   94  64  37 SW7       30.01F HX  95
ORLANDO EXEC   SUNNY     95  65  37 SW8       30.01F HX  97
ORLANDO INTL   MOSUNNY   91  65  41 S6        30.01F
KISSIMMEE      MOSUNNY   93  69  45 SE5       30.02F HX  98
WINTER HAVEN   MOSUNNY   95  63  34 CALM      30.03F HX  96
LAKELAND       MOSUNNY   93  66  40 NW5       30.02F HX  96
BARTOW         PTSUNNY   93  66  40 VRB6      30.02F HX  96
OKEECHOBEE     SUNNY     91  70  49 S6        30.03F HX  97

$$
FLZ041-047-054-059-064-141-147-292200-
EAST CENTRAL FLORIDA

CITY           SKY/WX    TMP DP  RH WIND       PRES   REMARKS
ORMOND BEACH   MOSUNNY   88  68  51 E12       30.02S
DAYTONA BEACH  MOSUNNY   89  68  49 E10G17    30.02S
DELAND         PTSUNNY   93  66  40 SW6       30.00F HX  96
NEW SMYRNA BEA MOSUNNY   90  68  48 E13       30.03F
JFK SPACE CTR  SUNNY    N/A N/A N/A S10         N/A
CAPE CANAVERAL SUNNY     89  72  57 E10       30.02F HX  95
PATRICK AFB    SUNNY     84  75  74 E13       30.02F
MELBOURNE      SUNNY     88  73  61 E14       30.03F HX  95
VERO BEACH     SUNNY     86  75  69 E13       30.04F HX  95
FT PIERCE      SUNNY     88  74  63 E10       30.03F HX  96
STUART         MOSUNNY   90  75  62 E12       30.05F HX 100

STATION/POSITION SKY/WX   TEMP    WIND        PRES    WAVE   SWELL
                          AIR SEA DIR/SP/G            HT/PER HT/PER
                          (F)     (DEG/KT/KT) (MB)    (FT/S) (FT/S)
28.5N   80.2W              80 76  100/  6/  8 1018.4
28.9N   78.5W              82 81  190/  2/  4 1017.4F   2/ 4   2/ 4
TRIDENT PIER               83 79   80/  7/ 10 1018.6F
28.4N   80.5W                 79                N/A     1/ 9
27.5N   80.2W                 82                N/A     1/ 4

$$
FLZ050-056-061-142-242-148-248-149-249-151-251-155-255-
160-260-292200-
WEST CENTRAL FLORIDA

CITY           SKY/WX    TMP DP  RH WIND       PRES   REMARKS
CRYSTAL RIVER  FAIR      88  72  58 W9        30.04F
INVERNESS      FAIR      91  70  49 SW7       30.03F HAZE    HX  97
BROOKSVILLE    SUNNY     91  65  41 W6        30.05F
CLEARWATER AIR FAIR      86  70  58 NW6       30.05F
ST PETE CLEARW SUNNY     90  66  45 NW10      30.04F
TAMPA INTL     SUNNY     90  68  48 W10       30.04F
TAMPA EXEC     SUNNY     95  61  31 W5        30.04S HX  95
PLANT CITY     MOSUNNY   97  66  36 NW7G17    30.04F HX 100
MACDILL AFB    SUNNY     91  64  40 N10       30.04F
PETER O KNIGHT SUNNY     93  68  43 W8        30.04F HX  97
ST PETERSBURG  SUNNY     90  72  55 E7        30.02F HX  97
SARASOTA       SUNNY     87  67  51 W12       30.03F
VENICE         FAIR      86  75  70 NW12      30.05F HX  95

STATION/POSITION SKY/WX   TEMP    WIND        PRES    WAVE   SWELL
                          AIR SEA DIR/SP/G            HT/PER HT/PER
                          (F)     (DEG/KT/KT) (MB)    (FT/S) (FT/S)
27.3N   84.2W                 81                N/A     1/ 7
CLEARWATER BEACH           82 85  300/  7/  8 1018.0F
MIDDLE TAMPA BAY           83     300/ 12/ 14 1017.7F
VENICE                     82 84  300/ 11/ 12 1017.6F

$$
FLZ066-069-070-075>078-162-262-165-265-292200-
SOUTHWEST FLORIDA AND KEYS

CITY           SKY/WX    TMP DP  RH WIND       PRES   REMARKS
PUNTA GORDA    SUNNY     91  69  48 W12       30.04F HX  96
FT MYERS       SUNNY     93  67  42 W15       30.02F HX  96
SOUTHWEST INTL SUNNY     93  63  36 W8        30.02F
NAPLES         SUNNY     91  67  44 W12       30.03F
MARCO ISLAND   SUNNY     91  70  49 W13       30.03F HX  97
IMMOKALEE      FAIR      95  66  38 CALM      30.02F HX  98
MARATHON       SUNNY     89  76  65 SE6       30.04F HX 100
KEY WEST NAS   SUNNY     86  75  69 VRB7      30.04F HX  95
KEY WEST INTL  SUNNY     87  74  64 E6        30.05F HX  95

STATION/POSITION SKY/WX   TEMP    WIND        PRES    WAVE   SWELL
                          AIR SEA DIR/SP/G            HT/PER HT/PER
                          (F)     (DEG/KT/KT) (MB)    (FT/S) (FT/S)
NAPLES                        87  280/ 11/ 12 1016.9F
26.0N   85.6W              82      30/  4/  6 1016.8
DRY TORTUGAS               84     110/  8/  9 1017.4F
SAND KEY                   83     120/  7/  9 1017.9F
LONG KEY                   85 91  190/  6/  7 1017.3F
MOLASSES REEF              84 83  140/  5/  6 1017.8F

$$
FLZ067-068-071>074-168-172>174-292200-
SOUTHEAST FLORIDA

CITY           SKY/WX    TMP DP  RH WIND       PRES   REMARKS
W PALM BEACH   MOSUNNY   88  71  57 E10       30.04F
BOCA RATON     SUNNY     88  75  66 SE12      30.04F HX  97
FT LAUDER-EXEC SUNNY     91  73  55 E13       30.04F HX  99
FT LAUDERDALE  MOSUNNY   87  73  62 E15       30.03F
POMPANO BEACH  SUNNY    N/A N/A N/A E13       30.04F
PEMBROKE PINES SUNNY     89  72  56 SE10      30.05F HX  96
OPA LOCKA      SUNNY     90  76  63 SE13      30.04F HX 101
MIAMI          MOSUNNY   90  71  53 SE12G21   30.04F HX  96
WEST KENDALL     N/A    N/A N/A N/A MISG        N/A
HOMESTEAD      MOSUNNY   90  76  62 SE13      30.03F HX 101

STATION/POSITION SKY/WX   TEMP    WIND        PRES    WAVE   SWELL
                          AIR SEA DIR/SP/G            HT/PER HT/PER
                          (F)     (DEG/KT/KT) (MB)    (FT/S) (FT/S)
PORT EVERGLADES            85     130/  8/ 11 1017.4F
VIRGINIA KEY               85 87  120/ 10/ 12 1016.8F
LAKE WORTH                 84 82              1018.2F
FOWEY ROCKS                83 83  140/ 11/ 12 1017.9F
SETTLEMENT POINT           84     210/  5/  6 1017.9F

$$




USA.gov is the U.S. government's official web portal to all federal, state and local government web resources and services.